Location: Rio Negrinho
(26.2394°S, 49.4999°W)
Time: 21:05:22
(UTC+00:00)

Cosmos 1844 - Pass Details

Date: 09 October 2020
Orbit: 824 x 866 km, 70.9° (Epoch: 20 October)

Event Time Altitude Azimuth Distance (km) Brightness Sun altitude
Exits shadow 06:55:45 58° 340° (NNW) 985 3.7 -25.3°
Maximum altitude 06:56:57 89° 254° (WSW) 857 3.6 -25.0°
Drops below altitude 10° 07:02:44 10° 162° (SSE) 2,506 6.6 -23.8°
Sets 07:05:13 0° 161° (SSE) 3,454 7.4 -23.3°
